Home > Weather > Changchun > Past weeks

Flag for China Weather for the Past 2 Weeks in Changchun, Jilin, China

Now
21 °F

Passing clouds.


Feels Like: 14 °F
Forecast: 17 / 26 °F
Wind: 6 mph from North

Location: Changchun Airport

Current Time: Feb 13, 2016 at 5:13:58 AM

Latest Report: Feb 13, 2016 at 4:00 AM


Visibility: N/A

Pressure: 30.21 "Hg

Humidity: 68%

Dew point: 12 °F

Location of ChangchunLocation

Historic Weather in Changchun — Graph

°F

Changchun Temperature Yesterday

Maximum temperature yesterday: 45 °F (at 12:00 AM)
Minimum temperature yesterday: 27 °F (at 10:00 PM)
Average temperature yesterday: 38 °F

High & Low Weather Summary for the Past Weeks

 TemperatureHumidityPressure
High48 °F (Feb 11, 1:00 PM)87% (Feb 12, 5:00 AM)30.69 "Hg (Feb 12, 5:00 AM)
Low-17 °F (Jan 30, 6:00 AM)22% (Feb 10, 1:00 PM)29.77 "Hg (Feb 8, 4:00 AM)
Average14 °F55%30.21 "Hg
* Reported Jan 29 4:00 AM — Feb 13 4:00 AM, Changchun, Weather by CustomWeather, © 2016

Note: Actual official high and low records may vary slightly from our data, if they occured in-between our weather recording intervals... More about our weather records

Advertising

Changchun Weather History for the Previous 24 Hours

 ConditionsComfort  
Time TempWeatherWind HumidityBarometerVisibility
4:00 AM
Sat, Feb 13
21 °FPassing clouds.6 mph68%30.21 "HgN/A
3:00 AM23 °FPassing clouds.8 mph63%30.18 "HgN/A
2:00 AM23 °FClear.6 mph68%30.18 "Hg4 mi
1:00 AM25 °FClear.8 mph69%30.18 "Hg4 mi
12:00 AM25 °FClear.3 mph80%30.15 "Hg4 mi
11:00 PM
Fri, Feb 12
27 °FClear.3 mph74%30.15 "Hg4 mi
10:00 PM27 °FIce fog.6 mph74%30.12 "Hg3 mi
9:00 PM28 °FIce fog.6 mph74%30.12 "Hg3 mi
8:00 PM30 °FIce fog.8 mph75%30.15 "Hg2 mi
7:00 PM30 °FIce fog.3 mph80%30.09 "Hg2 mi
6:00 PM32 °FIce fog.6 mph69%30.09 "Hg2 mi
5:00 PM36 °FPassing clouds.6 mph65%30.07 "Hg4 mi
4:00 PM41 °FFog.3 mph66%30.04 "Hg3 mi
3:00 PM41 °FFog.6 mph70%30.01 "Hg2 mi
2:00 PM41 °FFog.3 mph81%29.98 "Hg1 mi
1:00 PM39 °FDrizzle. Fog.3 mph87%29.98 "Hg1 mi
12:00 PM39 °FFog.6 mph87%29.98 "Hg1 mi
11:00 AM41 °FFog.3 mph87%29.98 "Hg1 mi
10:00 AM41 °FFog.6 mph87%29.98 "Hg1 mi
9:00 AM43 °FFog.10 mph76%29.98 "Hg2 mi
8:00 AM43 °FFog.10 mph76%29.98 "Hg3 mi
7:00 AM39 °FScattered clouds.3 mph81%29.98 "HgN/A
6:00 AM41 °FPassing clouds.3 mph81%29.98 "HgN/A
5:00 AM39 °FPassing clouds.6 mph87%29.95 "HgN/A
Weather by CustomWeather, © 2016

See weather overviewHow to use our weather pages